FW5404 Weather Reports


Display with metric or nautical units.
time (UTC)temp
F
wind
direction
speed
MPH
gust
MPH
rain 1hr
in
rain 24hr
in
rain mn
in
humidity
%
barometer
mb
20260505234004 53 314 0.0 2.0 0.00 0.00 0.00 82 1022.3
20260505233504 53 303 0.0 2.0 0.00 0.00 0.00 82 1022.3
20260505233004 53 292 1.0 2.0 0.00 0.00 0.00 82 1022.3
20260505232503 53 286 2.0 3.0 0.00 0.00 0.00 81 1022.3
20260505232004 53 285 2.0 3.0 0.00 0.00 0.00 81 1022.3
20260505231504 53 308 2.0 4.0 0.00 0.00 0.00 81 1022.3
20260505231004 53 314 2.0 4.0 0.00 0.00 0.00 80 1022.3
20260505230504 53 308 1.0 3.0 0.00 0.00 0.00 80 1022.3
20260505230009 53 309 1.0 3.0 0.00 0.00 0.00 79 1022.3
20260505225504 53 323 1.0 3.0 0.00 0.00 0.00 79 1022.3
20260505225003 54 322 2.0 4.0 0.00 0.00 0.00 79 1022.3
20260505224504 54 318 1.0 4.0 0.00 0.00 0.00 79 1022.3
20260505224004 54 328 2.0 4.0 0.00 0.00 0.00 79 1022.3
20260505223504 53 321 3.0 4.0 0.00 0.00 0.00 79 1022.3
20260505223005 53 331 2.0 3.0 0.00 0.00 0.00 79 1022.3
20260505222504 53 350 3.0 6.0 0.00 0.00 0.00 79 1022.3
20260505222004 53 333 3.0 6.0 0.00 0.00 0.00 79 1022.3
20260505221504 53 323 2.0 6.0 0.00 0.00 0.00 79 1022.3
20260505221004 53 324 2.0 4.0 0.00 0.00 0.00 78 1022.3
20260505220504 53 315 2.0 3.0 0.00 0.00 0.00 78 1022.3
20260505220005 53 310 2.0 3.0 0.00 0.00 0.00 78 1022.3
20260505215504 53 313 1.0 3.0 0.00 0.00 0.00 77 1022.3
20260505215004 53 337 1.0 3.0 0.00 0.00 0.00 77 1022.3
20260505214504 53 317 2.0 4.0 0.00 0.00 0.00 76 1022.3
20260505214004 53 307 2.0 4.0 0.00 0.00 0.00 76 1022.3
20260505213504 53 295 2.0 4.0 0.00 0.00 0.00 76 1022.3
20260505213004 54 288 2.0 3.0 0.00 0.00 0.00 75 1022.3
20260505212504 54 301 2.0 4.0 0.00 0.00 0.00 75 1022.3
20260505212004 54 309 2.0 4.0 0.00 0.00 0.00 75 1022.3
20260505211504 54 301 2.0 4.0 0.00 0.00 0.00 74 1022.3
20260505211004 54 317 2.0 4.0 0.00 0.00 0.00 74 1022.3
20260505210504 54 330 3.0 4.0 0.00 0.00 0.00 74 1022.3
20260505210006 54 337 3.0 4.0 0.00 0.00 0.00 72 1022.3
20260505205504 54 336 3.0 4.0 0.00 0.00 0.00 71 1022.3
20260505205005 54 331 3.0 4.0 0.00 0.00 0.00 71 1022.3
20260505204504 54 350 3.0 6.0 0.00 0.00 0.00 71 1022.3
20260505204003 54 354 3.0 6.0 0.00 0.00 0.00 70 1022.3
20260505203504 54 338 2.0 3.0 0.00 0.00 0.00 70 1022.3
20260505203004 54 334 3.0 6.0 0.00 0.00 0.00 70 1022.3
20260505202504 54 337 4.0 6.0 0.00 0.00 0.00 69 1022.3
20260505202005 55 330 3.0 6.0 0.00 0.00 0.00 69 1022.3
20260505201504 55 327 3.0 3.0 0.00 0.00 0.00 69 1022.3
20260505201004 56 314 7.0 7.0 0.00 0.00 0.00 66 1022.3
20260505200504 56 314 7.0 7.0 0.00 0.00 0.00 66 1022.3
20260505200006 56 314 7.0 7.0 0.00 0.00 0.00 66 1022.3
20260505195504 56 314 7.0 7.0 0.00 0.00 0.00 66 1022.3
20260505195004 56 314 7.0 7.0 0.00 0.00 0.00 66 1022.3
20260505194504 56 314 7.0 7.0 0.00 0.00 0.00 66 1022.3
20260505194004 56 314 7.0 7.0 0.00 0.00 0.00 66 1022.3
20260505193504 56 314 7.0 7.0 0.00 0.00 0.00 66 1022.3
20260505193004 56 314 7.0 7.0 0.00 0.00 0.00 66 1022.3
20260505192504 56 314 7.0 7.0 0.00 0.00 0.00 66 1022.3
20260505192004 56 314 7.0 7.0 0.00 0.00 0.00 66 1022.3
20260505191504 56 314 7.0 7.0 0.00 0.00 0.00 66 1022.3
20260505191005 56 314 7.0 7.0 0.00 0.00 0.00 66 1022.3
20260505190504 57 356 6.0 8.0 0.00 0.00 0.00 65 1022.3
20260505190006 57 359 6.0 8.0 0.00 0.00 0.00 65 1022.3
20260505185504 57 358 7.0 10.0 0.00 0.00 0.00 64 1022.3
20260505185005 57 3 7.0 10.0 0.00 0.00 0.00 63 1022.3
20260505184504 58 6 5.0 10.0 0.00 0.00 0.00 63 1022.3
20260505184006 58 358 5.0 10.0 0.00 0.00 0.00 63 1022.3
20260505183505 58 350 6.0 8.0 0.00 0.00 0.00 63 1022.3
20260505183006 58 6 7.0 9.0 0.00 0.00 0.00 62 1022.3
20260505182505 58 5 7.0 9.0 0.00 0.00 0.00 62 1022.3
20260505182006 58 343 7.0 9.0 0.00 0.00 0.00 61 1022.3
20260505181506 58 326 6.0 8.0 0.00 0.00 0.00 62 1022.3
20260505181007 59 337 6.0 10.0 0.00 0.00 0.00 62 1022.3
20260505180506 59 335 7.0 10.0 0.00 0.00 0.00 61 1022.3
20260505180008 59 345 8.0 11.0 0.00 0.00 0.00 60 1022.3
20260505175506 59 351 8.0 11.0 0.00 0.00 0.00 58 1022.3
20260505175005 59 344 7.0 13.0 0.00 0.00 0.00 58 1022.3
20260505174506 60 331 9.0 13.0 0.00 0.00 0.00 57 1022.3
20260505174006 60 326 9.0 11.0 0.00 0.00 0.00 56 1022.3
20260505173506 60 325 8.0 11.0 0.00 0.00 0.00 56 1022.3
20260505173005 60 335 8.0 11.0 0.00 0.00 0.00 55 1022.3
20260505172505 60 352 8.0 13.0 0.00 0.00 0.00 56 1022.3
20260505172006 61 1 7.0 13.0 0.00 0.00 0.00 56 1022.3
20260505171505 61 344 8.0 13.0 0.00 0.00 0.00 55 1022.3
20260505171006 61 328 7.0 9.0 0.00 0.00 0.00 55 1022.3
20260505170506 61 1 4.0 6.0 0.00 0.00 0.00 56 1022.3
20260505170008 61 1 4.0 6.0 0.00 0.00 0.00 56 1022.3
20260505165506 61 1 4.0 6.0 0.00 0.00 0.00 57 1022.3
20260505165006 61 1 4.0 6.0 0.00 0.00 0.00 57 1022.3
20260505164505 61 1 4.0 6.0 0.00 0.00 0.00 57 1022.3
20260505164005 61 1 4.0 6.0 0.00 0.00 0.00 57 1022.3
20260505163506 61 328 7.0 13.0 0.00 0.00 0.00 60 1022.3
20260505163008 61 321 7.0 13.0 0.00 0.00 0.00 60 1022.3
20260505162505 61 302 7.0 10.0 0.00 0.00 0.00 63 1022.3
20260505162005 61 306 9.0 10.0 0.00 0.00 0.00 63 1022.3
20260505161505 61 307 7.0 9.0 0.00 0.00 0.00 63 1022.3
20260505161005 62 294 8.0 9.0 0.00 0.00 0.00 67 1022.3
20260505160505 61 287 8.0 9.0 0.00 0.00 0.00 67 1022.3
20260505153006 62 290 9.0 14.0 0.00 0.00 0.00 70 1022.3
20260505152505 62 298 9.0 14.0 0.00 0.00 0.00 70 1022.3
20260505152005 62 308 9.0 11.0 0.00 0.00 0.00 70 1022.3
20260505151505 62 308 9.0 11.0 0.00 0.00 0.00 71 1022.3
20260505151006 63 297 10.0 11.0 0.00 0.00 0.00 67 1022.3
20260505150506 63 292 9.0 11.0 0.00 0.00 0.00 67 1022.3
20260505085505 55 6 3.0 5.0 0.00 0.00 0.00 93 1022.3
20260505085005 55 1 4.0 8.0 0.00 0.00 0.00 93 1022.3
20260505084505 55 15 5.0 8.0 0.00 0.00 0.00 94 1022.3
20260505084005 56 21 3.0 5.0 0.00 0.00 0.00 94 1022.3
20260505083505 55 31 2.0 3.0 0.00 0.00 0.00 94 1022.3
20260505083005 56 48 1.0 3.0 0.00 0.00 0.00 94 1022.3
20260505082505 56 71 1.0 3.0 0.00 0.00 0.00 94 1022.3
20260505082005 55 87 1.0 2.0 0.00 0.00 0.00 94 1022.3
20260505081506 56 0 0.0 0.0 0.00 0.00 0.00 94 1022.3
20260505081005 56 0 0.0 0.0 0.00 0.00 0.00 94 1022.3
20260505080505 56 0 0.0 0.0 0.00 0.00 0.00 94 1022.3
20260505080006 56 0 0.0 0.0 0.00 0.00 0.00 94 1022.3
20260505075505 56 0 0.0 0.0 0.00 0.00 0.00 94 1022.3
20260505075005 56 0 0.0 0.0 0.00 0.00 0.00 94 1022.3
20260505074505 56 326 1.0 2.0 0.00 0.00 0.00 94 1022.3
20260505074005 56 339 1.0 2.0 0.00 0.00 0.00 94 1022.3
20260505073505 56 330 1.0 2.0 0.00 0.00 0.00 95 1022.3
20260505073005 56 319 1.0 2.0 0.00 0.00 0.00 95 1022.3
20260505072504 56 292 0.0 2.0 0.00 0.00 0.00 95 1022.3
20260505072005 56 0 0.0 0.0 0.00 0.00 0.00 96 1022.3
20260505071505 56 0 0.0 0.0 0.00 0.00 0.00 96 1022.3
20260505071005 56 0 0.0 0.0 0.00 0.00 0.00 97 1022.3
20260505070505 55 0 0.0 0.0 0.00 0.00 0.00 97 1022.3
20260505070007 54 259 0.0 1.0 0.00 0.00 0.00 97 1022.3
20260505065505 54 281 1.0 3.0 0.00 0.00 0.00 97 1022.3
20260505065004 54 297 2.0 4.0 0.00 0.00 0.00 97 1022.3
20260505064504 54 318 1.0 4.0 0.00 0.00 0.00 100 1022.3
20260505064005 54 334 1.0 2.0 0.00 0.00 0.00 100 1022.3
20260505063505 54 320 1.0 2.0 0.00 0.00 0.00 100 1022.3
20260505063004 54 295 1.0 1.0 0.00 0.00 0.00 100 1022.3
20260505062504 53 295 1.0 1.0 0.00 0.00 0.00 100 1022.3
20260505062004 53 0 0.0 0.0 0.00 0.00 0.00 100 1022.3
20260505061504 53 0 0.0 0.0 0.00 0.00 0.00 100 1022.3
20260505061005 53 0 0.0 0.0 0.00 0.00 0.00 100 1022.3
20260505060505 53 0 0.0 0.0 0.00 0.00 0.00 100 1022.3
20260505060006 53 0 0.0 0.0 0.00 0.00 0.00 100 1022.3
20260505055505 52 0 0.0 0.0 0.00 0.00 0.00 100 1022.3
20260505055004 52 0 0.0 0.0 0.00 0.00 0.00 100 1022.3
20260505054505 52 0 0.0 0.0 0.00 0.00 0.00 100 1022.3
20260505054008 52 0 0.0 0.0 0.00 0.00 0.00 100 1022.3
20260505053504 52 0 0.0 0.0 0.00 0.00 0.00 100 1022.3
20260505053004 52 0 0.0 0.0 0.00 0.00 0.00 100 1022.3
20260505052505 52 0 0.0 0.0 0.00 0.00 0.00 100 1022.3
20260505052005 52 0 0.0 0.0 0.00 0.00 0.00 100 1022.3
20260505051504 52 0 0.0 0.0 0.00 0.00 0.00 100 1022.3
20260505051004 52 203 0.0 1.0 0.00 0.00 0.00 100 1022.3
20260505050504 52 96 0.0 1.0 0.00 0.00 0.00 100 1022.3
20260505041505 51 68 1.0 2.0 0.00 0.00 0.00 100 1022.3
20260505041004 51 68 0.0 2.0 0.00 0.00 0.00 100 1022.3
20260505040505 51 314 0.0 1.0 0.00 0.00 0.00 100 1022.3
20260505040006 51 300 1.0 2.0 0.00 0.00 0.00 100 1022.3
20260505035504 51 292 0.0 2.0 0.00 0.00 0.00 100 1022.3
20260505035005 51 0 0.0 0.0 0.00 0.00 0.00 100 1022.3
20260505034504 51 0 0.0 0.0 0.00 0.00 0.00 100 1022.3
20260505034004 51 0 0.0 0.0 0.00 0.00 0.00 100 1022.3
20260505033504 51 0 0.0 0.0 0.00 0.00 0.00 100 1022.3
20260505033005 51 0 0.0 0.0 0.00 0.00 0.00 100 1022.3
20260505032504 50 0 0.0 0.0 0.00 0.00 0.00 100 1022.3
20260505032005 50 0 0.0 0.0 0.00 0.00 0.00 100 1022.3
20260505031504 50 0 0.0 0.0 0.00 0.00 0.00 100 1022.3
20260505031004 50 0 0.0 0.0 0.00 0.00 0.00 100 1022.3
20260505030504 50 0 0.0 0.0 0.00 0.00 0.00 100 1022.3
20260505030007 50 0 0.0 0.0 0.00 0.00 0.00 97 1022.3
20260505025505 50 0 0.0 0.0 0.00 0.00 0.00 97 1022.3
20260505025005 49 300 1.0 2.0 0.00 0.00 0.00 97 1022.3
20260505024504 49 297 1.0 2.0 0.00 0.00 0.00 97 1022.3
20260505024004 49 297 1.0 2.0 0.00 0.00 0.00 97 1022.3
20260505023505 49 0 0.0 0.0 0.00 0.00 0.00 97 1022.3
20260505023004 49 0 0.0 0.0 0.00 0.00 0.00 97 1022.3
20260505022505 50 0 0.0 0.0 0.00 0.00 0.00 97 1022.3
20260505022004 49 0 0.0 0.0 0.00 0.00 0.00 97 1022.3
20260505021504 49 0 0.0 0.0 0.00 0.00 0.00 97 1022.3
20260505021005 50 0 0.0 0.0 0.00 0.00 0.00 97 1022.3
20260505020504 50 0 0.0 0.0 0.00 0.00 0.00 97 1022.3
20260505020006 50 0 0.0 0.0 0.00 0.00 0.00 97 1022.3
20260505015505 50 0 0.0 0.0 0.00 0.00 0.00 97 1022.3
20260505015004 50 158 0.0 1.0 0.00 0.00 0.00 97 1022.3
20260505014504 50 158 1.0 2.0 0.00 0.00 0.00 97 1022.3
20260505014005 50 158 1.0 2.0 0.00 0.00 0.00 97 1022.3
20260505013504 50 158 0.0 2.0 0.00 0.00 0.00 97 1022.3
20260505013004 50 0 0.0 0.0 0.00 0.00 0.00 97 1022.3
20260505012505 50 0 0.0 0.0 0.00 0.00 0.00 97 1022.3
20260505012004 51 158 0.0 1.0 0.00 0.00 0.00 97 1022.3
20260505011504 51 168 0.0 2.0 0.00 0.00 0.00 97 1022.3
20260505011004 51 167 1.0 2.0 0.00 0.00 0.00 97 1022.3
20260505010504 51 165 1.0 2.0 0.00 0.00 0.00 97 1022.3
20260505010006 51 0 0.0 0.0 0.00 0.00 0.00 97 1022.3
20260505005504 51 158 0.0 1.0 0.00 0.00 0.00 97 1022.3
20260505005005 51 158 0.0 2.0 0.00 0.00 0.00 97 1022.3
20260505004504 51 164 0.0 2.0 0.00 0.00 0.00 97 1022.3
20260505004004 51 173 0.0 2.0 0.00 0.00 0.00 97 1022.3
20260505003505 51 171 0.0 2.0 0.00 0.00 0.00 97 1022.3
20260505003004 51 203 0.0 1.0 0.00 0.00 0.00 97 1022.3
20260505002504 52 203 0.0 1.0 0.00 0.00 0.00 97 1022.3
20260505002004 52 0 0.0 0.0 0.00 0.00 0.00 97 1022.3
20260505001504 52 0 0.0 0.0 0.00 0.00 0.00 97 1022.3
20260505001004 51 248 0.0 2.0 0.00 0.00 0.00 97 1022.3
20260505000504 52 248 0.0 2.0 0.00 0.00 0.00 97 1022.3
20260505000006 51 248 0.0 2.0 0.00 0.00 0.00 96 1022.3
20260504235505 51 248 0.0 1.0 0.00 0.00 0.00 96 1022.3
20260504235004 51 0 0.0 0.0 0.00 0.00 0.00 96 1022.3
20260504234504 51 203 0.0 2.0 0.00 0.00 0.00 96 1022.3